Lid_Strength_Index
8 9 11 10 9 8 8 8 9 8 6 7 7 7 6 5 5 5 5 4 4 4 2 2 2 0 1 1 1 1 1 1 1 1 2 2 2 1 1 0 -0 -0 -0 -1
9 10 8 8 8 8 8 9 9 7 6 7 7 8 6 5 5 5 5 5 4 4 3 3 2 2 2 2 1 1 1 1 1 1 1 1 1 1 1 0 0 -0 -0 -0
11 10 7 8 9 9 9 9 9 9 7 6 7 9 8 6 5 5 4 4 4 4 4 3 2 3 2 2 2 2 1 1 1 1 1 1 1 1 1 1 1 0 -0 -0
10 8 9 8 9 9 10 8 8 8 9 12 7 13 9 7 7 6 5 5 4 4 3 3 3 3 3 2 2 1 1 1 1 1 1 1 2 3 1 1 1 1 -0 0
13 10 9 10 9 7 9 7 7 8 9 9 9 11 10 7 8 7 5 5 4 4 3 3 4 3 2 2 2 2 1 1 1 0 1 1 2 1 1 1 1 1 0 -0
11 8 9 9 8 7 6 7 8 8 9 13 10 11 11 9 8 6 5 4 4 4 3 3 3 3 3 2 2 2 2 2 1 1 1 1 1 1 2 2 2 1 1 1
10 10 9 8 9 7 8 9 13 14 13 14 9 11 10 7 6 6 5 5 4 4 3 4 4 4 3 3 2 2 2 2 1 1 1 1 1 0 1 1 1 1 1 1
14 14 10 9 10 10 8 9 12 16 15 13 9 12 10 6 5 5 4 4 4 4 4 4 4 3 3 3 3 2 2 2 2 1 1 1 0 1 1 0 1 1 1 1
14 13 7 8 7 7 9 11 8 11 10 12 11 9 7 6 6 5 5 5 4 5 4 4 4 3 3 3 3 2 2 2 2 1 1 1 1 0 0 0 1 1 0 0
10 14 8 7 7 7 8 7 11 10 15 16 12 11 11 8 7 6 6 5 5 5 4 4 4 3 3 3 2 2 2 2 2 1 1 1 1 1 0 0 1 0 0 0
8 12 11 8 9 9 9 10 9 9 10 14 15 12 7 8 6 6 6 5 5 5 5 4 4 3 3 2 2 2 2 2 2 1 1 1 1 1 1 0 0 1 0 0
8 13 15 12 7 6 7 9 9 12 13 11 11 11 6 5 6 5 5 5 5 4 4 4 3 3 3 3 2 2 2 2 1 1 1 1 1 1 1 1 1 1 1 0
8 12 15 13 10 8 10 8 8 8 9 12 13 12 6 6 5 5 5 4 5 5 4 4 4 4 3 3 3 2 2 2 1 1 2 2 2 1 1 1 1 0 0 1
7 11 13 17 14 13 14 10 8 9 12 11 11 10 8 7 6 5 5 5 5 5 4 4 4 4 3 3 3 2 2 2 1 1 2 2 2 1 1 1 0 1 1 1
9 14 12 11 11 12 13 12 9 9 9 11 10 9 8 6 6 6 5 5 5 5 5 4 4 4 3 3 2 2 2 2 1 2 2 2 2 1 1 1 1 0 1 1
9 14 12 14 11 12 13 11 10 8 8 8 9 9 7 6 5 6 5 5 6 5 5 4 4 3 3 3 3 2 2 2 1 2 2 2 2 1 2 1 1 1 1 1
11 13 15 15 12 13 15 12 10 9 8 8 10 8 6 7 6 5 6 5 5 5 4 4 4 3 3 3 2 2 2 1 2 2 2 2 2 2 1 1 1 1 1 1
10 12 13 15 14 20 11 7 7 8 7 7 7 7 6 6 5 4 4 5 4 4 4 4 3 3 3 2 2 2 2 2 2 2 2 1 2 2 2 2 2 1 1 1
7 10 15 16 17 14 12 11 10 9 11 8 7 6 6 5 6 6 4 4 4 4 3 3 3 3 2 2 2 2 2 2 2 2 2 1 1 2 2 2 2 2 2 2
7 8 13 14 19 20 14 9 7 6 13 7 7 7 7 5 9 8 5 4 4 3 3 3 3 2 2 2 2 2 2 2 2 2 2 1 1 1 2 2 2 1 1 2
10 12 15 16 17 15 10 8 6 14 14 7 6 6 7 8 6 5 4 4 3 3 3 2 2 3 2 2 2 2 2 2 2 1 1 1 1 1 1 1 1 1 2 1
14 15 14 13 16 19 9 8 13 10 7 6 6 6 6 5 5 4 4 4 3 3 3 2 3 3 2 2 2 2 3 1 1 1 1 1 1 1 1 1 1 2 2 2
15 12 14 14 14 9 7 8 7 6 6 6 5 5 5 5 5 4 4 4 4 3 3 2 3 3 2 2 2 2 2 1 1 1 2 2 1 1 1 2 2 2 2 2
10 7 11 11 10 9 8 6 6 6 6 5 4 5 4 5 4 4 4 4 3 3 3 2 3 3 3 2 2 2 1 1 1 2 2 2 2 2 2 1 1 2 2 2
10 9 10 11 8 7 7 7 6 5 5 5 4 4 4 4 4 4 4 4 3 3 3 2 3 3 3 2 2 1 1 1 2 2 2 2 2 2 2 2 2 1 1 2
8 9 11 12 7 7 7 6 5 6 5 4 5 5 3 3 4 3 4 3 3 3 3 3 2 3 2 2 2 2 1 1 2 2 2 2 2 2 2 2 2 11 8 9